Home > Weather > Abu Dhabi > Past weeks

Flag for United Arab Emirates Weather for the Past 2 Weeks in Abu Dhabi, Abu Dhabi, United Arab Emirates

Now
81 °F

Clear.


Feels Like: 82 °F
Forecast: 80 / 89 °F
Wind: 9 mph from West

Location: Abu Dhabi Bateen Airport

Current Time: May 1, 2016 at 9:56:31 PM

Latest Report: May 1, 2016 at 9:00 PM


Visibility: 10 mi

Pressure: 29.83 "Hg

Humidity: 58%

Dew Point: 64 °F

Location of Abu DhabiLocation

Historic Weather in Abu Dhabi — Graph

°F

Abu Dhabi Temperature Yesterday

Maximum temperature yesterday: 102 °F (at 1:00 PM)
Minimum temperature yesterday: 82 °F (at 10:00 PM)
Average temperature yesterday: 90 °F

High & Low Weather Summary for the Past Weeks

 TemperatureHumidityPressure
High106 °F (Apr 29, 1:00 PM)84% (May 1, 12:00 AM)29.98 "Hg (May 1, 12:00 AM)
Low72 °F (Apr 19, 7:00 AM)12% (Apr 24, 2:00 PM)29.68 "Hg (Apr 25, 2:00 AM)
Average84 °F44%29.82 "Hg
* Reported Apr 16 8:00 PM — May 1 8:00 PM, Abu Dhabi, Weather by CustomWeather, © 2016

Note: Actual official high and low records may vary slightly from our data, if they occured in-between our weather recording intervals... More about our weather records

Advertising

Abu Dhabi Weather History for the Previous 24 Hours

Scroll right to see more
 ConditionsComfort  
Time TempWeatherWind HumidityBarometerVisibility
8:00 PM
Sun, May 1
81 °FPassing clouds.6 mph58%29.83 "HgN/A
7:00 PM82 °FClear.12 mph48%29.80 "Hg10 mi
6:00 PM84 °FSunny.13 mph51%29.80 "Hg10 mi
5:00 PM86 °FSunny.15 mph43%29.77 "Hg10 mi
4:00 PM86 °FPassing clouds.13 mph40%29.80 "HgN/A
3:00 PM88 °FSunny.15 mph40%29.80 "Hg10 mi
2:00 PM88 °FPassing clouds.15 mph38%29.83 "HgN/A
1:00 PM88 °FSunny.13 mph38%29.83 "Hg10 mi
12:00 PM90 °FPassing clouds.15 mph33%29.86 "HgN/A
11:00 AM88 °FSunny.16 mph40%29.86 "Hg10 mi
10:00 AM86 °FSunny.14 mph49%29.86 "Hg10 mi
9:00 AM86 °FSunny.14 mph49%29.86 "Hg10 mi
8:00 AM84 °FPassing clouds.9 mph58%29.86 "HgN/A
7:00 AM81 °FPassing clouds.7 mph74%29.83 "HgN/A
6:00 AM81 °FSunny.3 mph74%29.80 "Hg10 mi
5:00 AM81 °FClear.2 mph70%29.80 "Hg10 mi
4:00 AM81 °FClear.7 mph70%29.77 "Hg5 mi
3:00 AM81 °FClear.1 mph74%29.77 "Hg5 mi
2:00 AM81 °FClear.2 mph79%29.80 "Hg4 mi
1:00 AM81 °FClear.7 mph84%29.80 "Hg4 mi
12:00 AM81 °FClear.12 mph84%29.80 "Hg4 mi
11:00 PM
Sat, Apr 30
82 °FClear.10 mph79%29.83 "Hg5 mi
10:00 PM82 °FClear.8 mph70%29.83 "Hg10 mi
9:00 PM86 °FClear.9 mph40%29.83 "Hg10 mi
Weather by CustomWeather, © 2016

See weather overviewHow to use our weather pages